Retour au catalogue

STARLINK-31351

ActifCommunicationsVLEO
NORAD 58972·PAYLOAD·🇺🇸 United States

Lancé Feb 15, 2024 depuis Vandenberg Space Force Base

Loading…

Prochains Passages (prochaines 24 heures)

TLE

FraisSource: CelesTrak SupGP

Époque: Sep 14, 2026, 21:18 UTC

1 58972C 24031H   26257.88798611 -.00070288  00000+0 -20759-2 0  2579
2 58972  53.1577 135.9003 0001310  92.0770  76.7439 15.34437075    18

Suivez STARLINK-31351 en temps réel avec AllMySat

Download on the App Store